This demonstration page uses our WeatherBlox Daily Observations layout. Learn more.

Left ArrowRight Arrow

41.12389, -100.76542

Hourly Observations for July 16, 2015

Temp ( °F °C ) Dew Point ( °F °C ) Humidity (%) Winds ( mph kmh ) Pressure ( in mb ) Visibility ( mi km ) Precip ( " mm )
12:53 am 00:53 Clear 70 21.1 67 19.4 90 90 NE 3 6 29.80 1009 10 16 0.00 0.00
1:53 am 01:53 Mostly Cloudy 71 21.7 68 20 90 90 Calm 29.80 1009 10 16 0.00 0.00
2:53 am 02:53 Mostly Cloudy 72 22.2 64 17.8 76 76 SW 8 13 29.80 1009 10 16 0.00 0.00
3:53 am 03:53 Mostly Clear 69 20.6 60 15.6 73 73 W 7 11 29.78 1009 10 16 0.00 0.00
4:53 am 04:53 Clear 65 18.3 61 16.1 87 87 SE 7 11 29.76 1008 10 16 0.00 0.00
5:53 am 05:53 Clear 65 18.3 61 16.1 87 87 SW 3 6 29.77 1008 10 16 0.00 0.00
6:53 am 06:53 Sunny 64 17.8 61 16.1 90 90 W 7 11 29.80 1009 10 16 0.00 0.00
7:53 am 07:53 Sunny 68 20 61 16.1 78 78 WNW 13 20 29.80 1009 10 16 0.00 0.00
8:53 am 08:53 Sunny 72 22.2 61 16.1 68 68 WNW 12 19 29.82 1010 10 16 0.00 0.00
9:53 am 09:53 Sunny 75 23.9 61 16.1 62 62 WNW 12 19 29.82 1010 10 16 0.00 0.00
10:53 am 10:53 Sunny 78 25.6 61 16.1 56 56 WNW 12 19 29.81 1010 10 16 0.00 0.00
11:53 am 11:53 Sunny 82 27.8 61 16.1 49 49 WNW 8 13 29.81 1010 10 16 0.00 0.00
12:53 pm 12:53 Sunny 85 29.4 60 15.6 43 43 VRB 5 7 29.80 1009 10 16 0.00 0.00
1:53 pm 13:53 Sunny 86 30 59 15 40 40 W 10 17 29.78 1009 10 16 0.00 0.00
2:53 pm 14:53 Sunny 87 30.6 57 13.9 36 36 WNW 16 26 29.77 1008 10 16 0.00 0.00
3:53 pm 15:53 Sunny 88 31.1 55 12.8 33 33 W 13 20 29.76 1008 10 16 0.00 0.00
4:53 pm 16:53 Sunny 88 31.1 56 13.3 34 34 NW 14 22 29.76 1008 10 16 0.00 0.00
5:53 pm 17:53 Sunny 87 30.6 55 12.8 34 34 WNW 10 17 29.75 1008 10 16 0.00 0.00
6:53 pm 18:53 Sunny 87 30.6 57 13.9 36 36 WNW 7 11 29.74 1007 10 16 0.00 0.00
7:53 pm 19:53 Sunny 81 27.2 65 18.3 58 58 Calm 29.75 1007 10 16 0.00 0.00
8:53 pm 20:53 Sunny 78 25.6 69 20.6 74 74 Calm 29.75 1007 10 16 0.00 0.00
9:53 pm 21:53 Clear 70 21.1 65 18.3 84 84 Calm 29.77 1008 10 16 0.00 0.00
10:53 pm 22:53 Clear 69 20.6 63 17.2 81 81 ESE 5 7 29.78 1008 10 16 0.00 0.00
11:53 pm 23:53 Clear 66 18.9 62 16.7 87 87 Calm 29.78 1009 10 16 0.00 0.00

Powered by AerisWeather